Probability
0 0 0 0 0 0 0 0 0 0 0 0 0 0 0 0 0 0 0 0 0 0 0 0 0 0 0 0 0 0 0 0 0 0 0 0 0 0 0 0 0 0 0
0 0 0 0 0 0 0 0 0 0 0 0 0 0 0 0 0 0 0 0 0 0 0 0 0 0 0 0 0 0 0 0 0 0 0 0 0 0 0 0 0 0 0
0 0 0 0 0 0 0 0 0 0 0 0 0 0 0 0 0 0 0 0 0 0 0 0 0 0 0 0 0 0 0 0 0 0 0 0 0 0 0 0 0 0 0
0 0 0 0 0 0 0 0 0 0 0 0 0 0 0 0 0 0 0 0 0 0 0 0 0 0 0 0 0 0 0 0 0 0 0 0 0 0 0 0 0 0 0
0 0 0 0 0 0 0 0 0 0 0 0 0 0 0 0 0 0 0 0 0 0 0 0 0 0 0 0 0 0 0 0 0 0 0 0 0 0 0 0 0 0 0
0 0 0 0 0 0 0 0 0 0 0 0 0 0 0 0 0 0 0 0 0 0 0 0 0 0 0 0 0 0 0 0 0 0 0 0 0 0 0 0 0 0 0
0 0 0 0 0 0 0 0 0 0 0 0 0 0 0 0 0 0 0 0 0 0 0 0 0 0 0 0 0 0 0 0 0 0 0 0 0 0 0 0 0 0 0
0 0 0 0 0 0 0 0 0 0 0 0 0 0 0 0 0 0 0 0 0 0 0 0 0 0 0 0 0 0 0 0 0 0 0 0 0 0 0 0 0 0 0
0 0 0 0 0 0 0 0 0 0 0 0 0 0 0 0 0 0 0 0 0 0 0 0 0 0 0 0 0 0 0 0 0 0 0 0 0 0 0 0 0 0 0
0 0 0 0 0 0 0 0 0 0 0 0 0 0 0 0 0 0 0 0 0 0 0 0 0 0 0 0 0 0 0 0 0 0 0 0 0 0 0 0 0 0 0
0 0 0 0 0 0 0 0 0 0 0 0 0 0 0 0 0 0 0 0 0 0 0 0 0 0 0 0 0 0 0 0 0 0 0 0 0 0 0 0 0 0 0
0 0 0 0 0 0 0 0 0 0 0 0 0 0 0 0 0 0 0 0 0 0 0 0 0 0 0 0 0 0 0 0 0 0 0 0 0 0 0 0 0 0 0
0 0 0 0 0 0 0 0 0 0 0 0 0 0 0 0 0 0 0 0 0 0 0 0 0 0 0 0 0 0 0 0 0 0 0 0 0 0 0 0 0 0 0
0 0 0 0 0 0 0 0 0 0 0 0 0 0 0 0 0 0 0 0 0 0 0 0 0 0 0 0 0 0 0 0 0 0 0 0 0 0 0 0 0 0 0
0 0 0 0 0 0 0 0 0 0 0 0 0 0 0 0 0 0 0 0 0 0 0 0 0 0 0 0 0 0 0 0 0 0 0 0 0 0 0 0 0 0 0
0 0 0 0 0 0 0 0 0 0 0 0 0 0 0 0 0 0 0 0 0 0 0 0 0 0 0 0 0 0 0 0 0 0 0 0 0 0 0 0 0 0 0
0 0 0 0 0 0 0 0 0 0 0 0 0 0 0 0 0 0 0 0 0 0 0 0 0 0 0 0 0 0 0 0 0 0 0 0 0 0 0 0 0 0 0
0 0 0 0 0 0 0 0 1 1 1 0 0 0 0 0 0 0 0 0 0 0 0 0 0 0 0 0 0 0 0 0 0 0 0 0 0 0 0 0 0 0 0
0 0 0 0 0 0 0 0 1 2 2 1 0 0 0 0 0 0 0 0 0 0 0 0 0 0 0 0 0 0 0 0 0 0 0 0 0 0 0 0 0 0 0
0 0 0 0 1 0 0 0 0 1 2 1 0 0 0 0 0 0 0 0 0 0 0 0 0 0 0 0 0 0 0 0 0 0 0 0 0 0 0 0 0 0 0
0 0 0 0 0 0 0 0 0 0 1 1 0 0 0 0 0 0 0 0 0 0 0 0 0 0 0 0 0 0 0 0 0 0 0 0 0 0 0 0 0 0 0
0 0 0 0 0 0 0 0 0 0 0 0 0 0 0 0 0 0 0 0 0 0 0 0 0 0 0 0 0 0 0 0 0 0 0 0 0 0 0 0 0 0 0
0 0 0 0 0 0 0 0 0 0 0 0 0 0 0 0 0 0 0 0 0 0 0 0 0 0 0 0 0 0 0 0 0 0 0 0 0 0 0 0 0 0 0
0 0 0 0 0 0 0 0 0 0 0 0 0 0 0 0 0 0 0 0 0 0 0 0 0 0 0 0 0 0 0 0 0 0 0 0 0 0 0 0 0 0 0
0 0 0 0 0 0 0 0 0 0 0 0 0 0 0 0 0 0 0 0 0 0 0 0 0 0 0 0 0 0 0 0 0 0 0 0 0 0 0 0 0 0 0
0 0 0 0 0 0 0 0 0 0 0 0 0 0 0 0 0 0 0 0 0 0 0 0 0 0 0 0 0 0 0 0 0 0 0 0 0 0 0 0 0 0 0
Wind_Speed
3 3 3 2 2 3 3 3 3 3 3 4 4 3 3 3 3 2 2 2 2 1 1 2 2 2 2 2 2 2 2 2 2 1 0 0 0 1 1 1 1 1 1
2 2 3 2 2 2 3 3 3 3 4 4 4 4 3 3 3 3 3 3 3 3 2 2 2 2 2 2 2 2 2 2 3 2 0 0 0 0 0 1 1 1 1
2 2 2 2 2 2 3 2 2 3 3 3 4 4 4 4 4 3 3 3 3 3 3 3 3 3 2 2 2 2 2 2 2 3 1 0 0 0 1 1 1 1 1
2 2 2 2 3 3 2 2 2 3 3 4 4 4 4 4 4 4 3 3 3 3 3 3 3 4 4 4 3 3 3 3 3 2 2 0 0 0 1 1 1 1 1
2 2 3 2 2 2 2 1 2 2 3 3 3 3 3 3 4 4 4 4 3 3 2 2 3 4 6 5 4 4 5 3 3 3 2 1 1 1 1 1 1 0 1
2 2 2 2 2 2 1 1 2 2 2 2 3 3 4 3 5 7 5 3 3 3 3 2 2 3 5 6 6 7 7 6 5 4 3 3 3 3 2 2 1 1 1
2 2 2 2 2 2 1 1 2 2 2 2 3 3 4 4 6 7 7 4 3 3 3 3 2 2 3 2 4 5 5 6 7 6 5 5 4 5 4 3 3 2 2
2 2 2 2 2 2 2 2 1 1 2 2 3 3 3 4 6 6 7 4 3 3 3 3 3 2 3 3 3 3 3 3 5 4 5 5 5 4 5 4 4 2 0
3 3 3 3 3 3 3 3 2 2 1 2 2 3 3 4 5 6 6 3 2 2 2 3 3 3 5 5 4 3 2 2 3 4 5 4 5 5 5 3 3 2 1
4 4 3 3 3 4 4 3 2 2 2 2 2 3 3 3 5 6 7 3 3 2 2 2 5 5 5 6 5 5 4 3 2 2 2 2 2 3 6 5 5 4 2
3 2 2 3 3 4 3 2 2 2 2 1 1 2 3 3 4 6 7 4 4 3 3 2 3 6 6 7 6 5 6 4 3 2 1 1 1 1 2 2 3 4 4
3 3 3 3 3 2 3 3 3 3 2 1 1 1 2 2 3 5 7 7 5 4 4 3 4 6 6 6 5 6 6 4 3 2 2 1 2 2 2 1 2 2 2
3 3 3 3 2 3 3 3 3 3 2 2 2 2 2 2 3 4 5 7 6 4 3 4 4 5 4 4 5 6 5 3 3 3 3 3 2 2 1 1 0 0 0
4 3 3 2 2 2 2 3 3 3 3 3 3 3 3 2 2 2 3 3 4 3 2 3 3 3 3 3 2 3 3 4 4 4 3 2 1 1 1 1 1 1 0
4 3 3 3 3 3 3 3 4 4 5 5 4 4 3 4 5 5 4 4 4 4 3 1 1 1 2 2 1 2 2 2 3 2 3 2 2 2 2 1 1 1 2
3 3 3 3 3 3 3 1 3 4 5 6 5 4 4 5 4 5 6 5 5 6 4 2 3 3 4 4 3 3 3 3 3 3 3 4 4 4 3 2 2 2 3
5 4 3 3 3 3 3 3 2 2 3 4 5 5 5 4 4 4 5 5 5 6 4 4 4 5 4 4 4 4 4 4 3 4 4 4 4 3 3 3 3 3 3
4 4 4 4 4 4 4 4 3 3 2 2 3 5 6 5 5 5 5 3 2 4 4 4 5 5 5 4 4 4 4 3 3 4 4 4 4 4 4 4 4 4 4
4 4 4 4 4 4 3 3 3 4 3 3 2 2 4 4 3 4 4 3 4 4 5 5 5 5 5 5 5 5 5 4 5 4 4 5 5 4 5 5 5 6 5
4 5 5 4 3 3 3 3 3 3 3 3 4 3 2 2 2 3 4 4 4 5 5 5 5 5 5 5 5 5 5 5 5 5 5 5 5 5 6 6 5 5 5
3 4 5 4 4 4 4 4 4 4 4 4 4 5 5 4 4 5 5 5 5 5 5 5 5 5 5 4 5 6 6 6 6 6 6 6 6 6 5 5 5 5 4
4 4 4 4 4 4 4 4 4 4 4 5 4 4 6 4 4 5 5 5 5 5 5 5 5 5 6 6 6 6 7 7 7 6 6 6 6 6 5 5 5 5 5
4 4 4 4 4 4 4 4 4 4 4 5 4 4 4 4 4 5 5 5 5 5 4 5 5 5 5 5 6 7 7 8 7 7 7 7 6 6 6 6 7 6 6
4 5 4 4 4 4 4 4 4 4 5 5 5 4 4 4 5 5 5 4 4 4 4 5 6 7 8 6 5 6 6 7 6 7 9 7 7 6 6 6 6 7 6
4 4 4 4 5 4 4 4 4 5 5 4 4 4 4 4 4 4 4 4 4 4 5 5 4 5 7 8 7 6 8 9 8 6 6 7 7 7 7 7 6 6 6
3 3 4 4 4 4 4 4 4 4 4 4 3 3 4 4 4 4 3 3 4 4 4 4 5 6 7 6 7 8 8 8 9 9 6 5 7 7 7 6 7 7 6
Wind_Direction
198 196 191 194 192 188 195 203 199 196 187 189 186 176 173 172 165 157 166 158 155 154 150 147 155 151 143 137 127 127 127 130 145 253 258 300 69 39 20 32 40 33 18
191 189 192 186 170 188 208 208 194 195 195 194 183 178 181 180 175 177 185 177 173 175 177 161 173 160 151 151 147 147 150 147 149 169 231 352 168 177 77 52 32 40 7
152 166 177 183 181 198 216 206 193 194 192 189 182 184 186 185 184 191 189 187 188 190 187 184 187 169 175 171 162 153 151 135 125 142 158 21 72 75 71 42 30 9 350
150 163 182 201 201 200 191 185 191 189 189 191 192 191 186 183 187 188 180 181 186 196 198 194 193 189 187 175 169 164 148 129 122 130 144 145 164 64 105 107 1 359 348
172 188 216 215 196 181 172 177 186 183 191 189 181 183 177 179 190 181 179 181 181 189 200 203 205 203 199 187 176 170 157 148 146 149 166 163 196 181 195 187 195 319 331
190 218 219 191 179 186 185 174 169 174 168 173 181 178 183 197 190 185 174 176 178 184 198 212 220 214 207 204 194 182 174 168 171 170 183 192 211 210 189 178 163 137 276
198 222 211 193 191 198 182 154 173 180 172 187 197 189 198 208 200 193 185 169 176 190 199 203 220 218 201 186 194 188 196 198 188 178 183 201 202 201 183 185 191 189 218
197 215 214 196 198 182 166 180 187 168 177 196 204 202 202 212 201 193 183 168 174 190 201 200 200 210 199 175 164 173 200 217 208 194 194 206 207 195 189 192 181 160 347
211 215 213 199 189 177 183 195 189 168 187 206 196 192 200 219 208 193 169 155 173 201 209 206 201 205 212 183 164 174 203 246 225 199 204 209 206 193 173 140 144 145 222
222 219 210 195 188 194 199 196 187 183 193 189 199 198 200 214 213 199 177 163 179 201 213 218 215 211 212 197 181 178 201 224 192 185 201 214 214 199 188 187 180 173 181
215 200 198 198 198 200 192 182 175 176 167 176 199 217 217 223 218 204 186 176 185 189 202 218 226 219 214 206 199 199 208 191 169 169 173 191 188 199 206 206 198 183 183
193 195 199 199 204 195 179 177 170 168 167 189 198 255 252 243 225 216 203 199 187 183 205 214 220 217 212 208 208 212 202 172 148 150 165 202 217 226 225 215 213 201 206
189 202 206 200 198 183 178 177 172 174 179 198 202 230 251 252 245 228 213 210 206 198 208 213 216 210 207 209 212 204 185 165 162 178 203 221 222 212 177 146 298 153 14
191 201 197 195 202 192 187 184 184 188 194 203 211 225 239 237 236 226 217 212 208 208 208 209 210 203 194 204 211 201 186 183 182 197 209 206 170 171 192 186 197 190 199
201 199 197 199 200 196 196 203 203 205 198 200 211 212 210 232 236 223 207 204 199 195 164 140 155 169 185 198 206 203 193 187 199 195 190 191 194 199 214 200 187 186 201
204 207 205 197 196 193 193 226 250 232 229 224 223 221 231 238 247 219 218 217 205 184 159 181 200 202 204 205 205 209 207 206 206 198 198 198 201 204 208 203 197 209 221
205 209 205 197 197 198 198 199 225 272 258 239 233 234 236 238 237 218 211 208 200 179 183 203 209 211 212 210 210 209 212 210 200 196 202 205 205 206 205 209 208 221 231
206 211 207 203 201 204 206 209 203 204 225 253 242 232 235 235 231 219 200 164 190 197 210 214 218 217 213 211 212 214 212 200 197 202 205 208 206 205 208 213 212 217 224
206 211 209 205 204 206 206 206 209 210 216 229 235 239 232 232 233 219 184 188 206 217 223 226 225 221 217 214 213 212 209 208 205 201 207 210 208 208 216 218 216 219 223
215 223 215 203 201 203 204 205 211 213 221 226 227 225 199 183 212 217 210 215 219 224 226 229 230 225 219 215 212 209 210 212 210 211 211 210 210 210 216 218 218 217 224
216 217 214 207 206 207 207 211 213 213 219 231 235 227 206 204 216 220 218 222 224 225 227 230 232 229 223 216 213 212 213 216 215 215 213 211 208 213 218 217 220 223 227
211 211 209 208 208 210 213 214 212 216 221 232 245 235 220 216 219 222 222 224 226 227 225 226 231 229 221 215 214 215 218 219 218 217 217 213 211 212 212 213 217 220 226
213 211 214 216 210 213 214 214 213 218 222 229 231 227 219 224 227 229 228 228 228 229 226 225 231 236 233 226 219 215 217 220 218 212 211 211 211 211 210 213 214 217 224
213 214 214 214 212 210 212 216 220 224 226 227 226 224 224 227 232 238 239 235 235 237 233 229 232 236 237 235 230 225 225 223 214 212 209 210 211 211 210 213 216 218 221
218 217 214 212 213 215 216 219 224 229 230 228 225 226 227 232 236 241 243 237 235 238 242 240 238 238 239 239 237 237 233 225 219 214 208 207 208 208 208 211 214 215 218
218 218 217 215 216 218 217 219 223 224 225 228 227 228 230 236 241 241 243 240 238 243 246 246 244 246 251 246 240 240 237 227 220 217 211 205 206 209 209 213 213 213 213